Temp
-13 -13 -13 -13 -13 -13 -13 -13 -13 -13 -13 -12 -12 -11 -11 -11 -11 -11 -10 -10 -10 -10 -11 -11 -10 -11 -11 -11 -11 -11 -10 -9 -8 -8 -8 -9 -9 -9 -9 -8 -8 -10 -10 -9 -9
-13 -13 -13 -13 -13 -13 -13 -13 -13 -13 -13 -13 -12 -12 -12 -11 -11 -10 -10 -10 -10 -11 -11 -11 -10 -10 -10 -10 -10 -11 -10 -10 -9 -10 -9 -9 -9 -9 -10 -10 -9 -8 -9 -9 -9
-13 -13 -13 -13 -13 -13 -13 -13 -13 -13 -13 -13 -12 -12 -12 -12 -11 -10 -11 -11 -11 -11 -11 -10 -11 -11 -10 -10 -10 -10 -9 -10 -10 -9 -10 -10 -9 -8 -9 -9 -10 -10 -10 -9 -9
-13 -13 -13 -13 -13 -13 -13 -13 -13 -13 -13 -13 -13 -12 -12 -12 -11 -12 -11 -11 -11 -11 -11 -11 -11 -11 -10 -10 -11 -10 -10 -10 -10 -10 -10 -11 -10 -10 -10 -9 -9 -11 -10 -9 -9
-13 -13 -13 -13 -13 -14 -13 -13 -13 -13 -13 -13 -13 -12 -12 -12 -12 -12 -12 -12 -11 -11 -11 -11 -11 -11 -10 -11 -11 -10 -10 -10 -10 -10 -11 -11 -11 -10 -9 -10 -10 -9 -10 -11 -11
-13 -13 -13 -14 -14 -14 -14 -14 -13 -13 -13 -13 -13 -13 -12 -12 -12 -12 -12 -11 -11 -12 -11 -11 -11 -11 -10 -10 -10 -11 -10 -10 -10 -10 -10 -11 -11 -11 -8 -10 -10 -10 -10 -10 -9
-13 -13 -13 -14 -14 -14 -14 -14 -14 -13 -13 -13 -13 -13 -13 -13 -12 -12 -12 -12 -12 -12 -12 -12 -11 -11 -11 -11 -11 -11 -11 -11 -10 -9 -9 -11 -11 -9 -9 -9 -10 -10 -10 -11 -11
-13 -13 -13 -14 -14 -14 -14 -14 -14 -14 -13 -13 -13 -13 -12 -12 -12 -12 -12 -11 -11 -12 -12 -11 -11 -12 -12 -12 -12 -11 -11 -10 -9 -11 -9 -12 -9 -9 -10 -10 -10 -10 -10 -11 -11
-13 -13 -14 -14 -14 -14 -14 -14 -14 -14 -13 -13 -13 -13 -12 -12 -12 -12 -12 -11 -11 -11 -11 -11 -11 -11 -12 -12 -12 -12 -11 -11 -10 -11 -11 -13 -11 -9 -10 -10 -10 -10 -11 -11 -11
-13 -13 -14 -13 -13 -14 -14 -13 -13 -13 -13 -13 -13 -13 -13 -12 -12 -12 -12 -12 -12 -12 -12 -12 -12 -12 -12 -12 -11 -12 -12 -12 -11 -11 -12 -13 -13 -9 -9 -10 -10 -11 -11 -11 -11
-14 -14 -14 -13 -13 -13 -13 -13 -13 -13 -13 -13 -13 -13 -13 -13 -13 -13 -13 -13 -13 -13 -13 -13 -13 -13 -13 -13 -12 -12 -12 -11 -11 -11 -13 -15 -15 -10 -10 -10 -10 -10 -10 -10 -11
-14 -14 -14 -14 -13 -13 -13 -13 -13 -13 -14 -14 -14 -14 -13 -13 -13 -13 -13 -13 -13 -13 -14 -14 -13 -13 -13 -13 -13 -13 -13 -11 -11 -12 -13 -12 -13 -10 -10 -10 -11 -11 -10 -10 -10
-15 -15 -14 -14 -14 -14 -13 -13 -13 -13 -13 -14 -14 -14 -14 -14 -14 -14 -14 -14 -14 -14 -14 -14 -14 -14 -14 -14 -13 -13 -14 -13 -13 -13 -13 -12 -12 -12 -10 -11 -12 -14 -10 -10 -11
-16 -15 -15 -14 -14 -14 -14 -14 -13 -13 -13 -13 -14 -15 -14 -14 -14 -14 -14 -14 -14 -14 -14 -14 -14 -14 -14 -14 -16 -15 -15 -15 -14 -14 -13 -15 -14 -12 -12 -12 -11 -11 -11 -10 -10
-16 -16 -15 -15 -14 -14 -14 -14 -14 -14 -14 -14 -14 -14 -15 -15 -15 -14 -14 -14 -14 -14 -15 -16 -17 -19 -18 -18 -20 -20 -20 -20 -20 -19 -17 -15 -16 -11 -12 -11 -12 -12 -12 -12 -11
-16 -16 -16 -15 -15 -15 -15 -15 -14 -14 -14 -14 -15 -14 -15 -15 -15 -15 -15 -15 -16 -18 -21 -21 -21 -22 -22 -21 -21 -21 -21 -21 -21 -21 -20 -14 -19 -12 -12 -12 -13 -14 -13 -13 -12
-16 -16 -16 -15 -15 -15 -15 -15 -15 -15 -15 -15 -15 -16 -16 -16 -16 -16 -17 -18 -21 -21 -22 -22 -22 -22 -22 -21 -21 -22 -21 -20 -20 -20 -20 -18 -20 -17 -13 -14 -14 -15 -15 -15 -15
-15 -15 -15 -16 -15 -15 -15 -15 -15 -15 -16 -16 -16 -16 -16 -18 -18 -19 -21 -21 -21 -21 -21 -22 -22 -22 -22 -22 -21 -21 -22 -21 -21 -20 -20 -20 -20 -19 -16 -16 -16 -16 -15 -15 -15
-15 -15 -15 -15 -16 -16 -16 -15 -15 -16 -16 -16 -17 -17 -18 -18 -19 -20 -22 -22 -22 -21 -21 -22 -22 -22 -23 -22 -22 -21 -21 -21 -22 -21 -20 -20 -20 -19 -18 -16 -17 -16 -16 -16 -16
-14 -15 -15 -15 -15 -16 -16 -16 -16 -16 -16 -17 -17 -17 -18 -19 -19 -20 -22 -22 -21 -22 -22 -21 -22 -23 -22 -22 -21 -22 -21 -21 -21 -21 -21 -21 -21 -19 -18 -19 -18 -17 -15 -16 -16
-14 -15 -15 -15 -15 -16 -16 -16 -16 -16 -17 -17 -18 -18 -18 -19 -20 -20 -20 -20 -20 -21 -22 -23 -22 -22 -22 -22 -21 -22 -21 -21 -21 -21 -20 -20 -19 -19 -18 -18 -17 -17 -16 -16 -16
-14 -14 -14 -15 -15 -16 -16 -16 -16 -17 -17 -18 -18 -18 -19 -19 -20 -20 -20 -20 -20 -21 -21 -22 -21 -21 -22 -22 -21 -22 -21 -22 -20 -20 -21 -21 -18 -20 -18 -18 -17 -16 -16 -16 -15
-14 -14 -14 -15 -15 -15 -16 -16 -17 -17 -17 -18 -19 -19 -19 -20 -20 -20 -20 -20 -20 -20 -20 -21 -21 -21 -22 -22 -21 -21 -21 -21 -21 -21 -20 -21 -18 -19 -18 -17 -17 -16 -16 -15 -15
-14 -14 -15 -15 -15 -16 -16 -16 -17 -17 -17 -18 -19 -19 -20 -20 -20 -19 -20 -20 -20 -20 -20 -21 -21 -22 -22 -22 -21 -21 -22 -21 -21 -21 -21 -21 -21 -20 -17 -17 -17 -16 -16 -16 -14
-15 -15 -15 -15 -15 -16 -16 -16 -17 -17 -18 -18 -19 -20 -20 -20 -20 -20 -20 -20 -20 -20 -21 -21 -21 -22 -21 -22 -21 -22 -22 -21 -21 -21 -21 -21 -21 -21 -20 -19 -17 -16 -17 -17 -14
-15 -15 -15 -16 -16 -16 -16 -16 -17 -18 -18 -19 -20 -20 -20 -20 -20 -20 -20 -20 -20 -20 -20 -21 -21 -21 -20 -21 -21 -21 -21 -20 -20 -21 -21 -21 -21 -21 -21 -19 -18 -18 -18 -18 -15
-15 -15 -15 -16 -16 -16 -16 -16 -17 -18 -19 -19 -20 -20 -21 -20 -20 -20 -20 -20 -20 -21 -21 -21 -21 -21 -21 -20 -20 -20 -21 -20 -19 -19 -21 -21 -21 -21 -21 -20 -20 -19 -20 -16 -14
Height
5757 5756 5755 5754 5753 5752 5751 5750 5750 5751 5751 5753 5755 5758 5760 5762 5764 5766 5770 5776 5779 5783 5786 5789 5793 5798 5801 5803 5806 5809 5807 5811 5822 5828 5832 5833 5835 5838 5842 5844 5849 5852 5855 5855 5855
5753 5752 5751 5750 5749 5748 5748 5748 5748 5748 5749 5749 5751 5752 5754 5756 5759 5762 5768 5769 5773 5776 5778 5781 5784 5788 5791 5795 5797 5798 5800 5807 5818 5820 5822 5825 5829 5831 5833 5838 5843 5845 5846 5848 5851
5749 5747 5746 5745 5745 5745 5744 5744 5744 5744 5745 5746 5747 5748 5750 5751 5753 5760 5760 5763 5766 5770 5772 5774 5777 5779 5783 5785 5789 5791 5792 5804 5807 5810 5813 5818 5820 5824 5826 5828 5835 5839 5842 5846 5847
5745 5743 5742 5740 5740 5739 5739 5739 5740 5740 5741 5742 5743 5744 5746 5747 5750 5754 5754 5756 5759 5761 5764 5767 5770 5771 5773 5776 5778 5779 5787 5791 5797 5800 5802 5805 5810 5810 5814 5820 5825 5831 5837 5839 5838
5742 5740 5738 5737 5735 5735 5735 5735 5735 5736 5737 5737 5738 5739 5741 5743 5745 5747 5749 5751 5753 5755 5757 5759 5761 5764 5765 5767 5768 5772 5779 5780 5783 5786 5790 5796 5800 5802 5807 5814 5820 5820 5825 5830 5828
5739 5737 5735 5733 5732 5731 5730 5730 5731 5731 5732 5733 5734 5734 5736 5738 5739 5741 5743 5745 5747 5749 5751 5753 5754 5755 5756 5758 5761 5764 5766 5768 5772 5776 5779 5783 5787 5791 5803 5808 5811 5812 5815 5817 5817
5737 5734 5732 5730 5729 5728 5727 5726 5726 5726 5727 5727 5728 5729 5731 5733 5733 5735 5736 5738 5740 5741 5742 5743 5746 5748 5749 5749 5754 5753 5753 5757 5763 5769 5770 5772 5770 5776 5794 5795 5797 5802 5806 5810 5809
5734 5732 5729 5727 5725 5724 5724 5723 5722 5722 5722 5722 5723 5723 5723 5726 5727 5728 5729 5731 5732 5733 5734 5736 5737 5739 5739 5740 5741 5743 5745 5749 5762 5757 5763 5757 5757 5774 5782 5783 5786 5790 5795 5801 5803
5733 5730 5727 5724 5722 5721 5720 5719 5718 5717 5717 5717 5718 5718 5718 5721 5721 5721 5722 5723 5724 5725 5726 5727 5728 5728 5729 5729 5732 5734 5734 5736 5743 5747 5748 5742 5745 5762 5769 5771 5773 5778 5783 5788 5793
5732 5729 5726 5723 5721 5719 5717 5715 5714 5713 5713 5712 5713 5713 5713 5713 5715 5715 5715 5715 5716 5716 5717 5717 5717 5717 5717 5718 5723 5721 5720 5723 5728 5740 5732 5731 5731 5748 5754 5755 5759 5763 5767 5774 5780
5730 5727 5724 5721 5718 5716 5715 5712 5712 5710 5708 5708 5708 5707 5707 5709 5708 5709 5709 5708 5708 5708 5707 5706 5707 5706 5705 5704 5707 5704 5705 5708 5715 5718 5712 5714 5720 5730 5739 5742 5745 5750 5754 5757 5764
5727 5724 5722 5719 5716 5714 5711 5709 5707 5707 5705 5703 5702 5703 5702 5702 5701 5701 5701 5701 5700 5699 5698 5698 5696 5694 5693 5693 5693 5691 5690 5695 5698 5699 5694 5702 5700 5717 5723 5727 5732 5736 5741 5747 5753
5725 5722 5719 5717 5714 5711 5709 5707 5704 5702 5701 5700 5698 5697 5697 5697 5695 5694 5692 5690 5689 5688 5686 5684 5683 5681 5680 5680 5679 5679 5678 5680 5678 5680 5678 5687 5686 5697 5711 5714 5718 5720 5728 5734 5740
5722 5719 5717 5714 5713 5709 5706 5704 5701 5698 5697 5696 5695 5694 5691 5690 5687 5686 5683 5681 5678 5675 5672 5671 5668 5666 5665 5665 5663 5660 5664 5662 5661 5664 5665 5670 5664 5681 5696 5701 5702 5710 5717 5722 5728
5716 5715 5714 5711 5709 5706 5704 5701 5698 5695 5692 5692 5689 5687 5685 5683 5681 5675 5671 5668 5665 5662 5660 5657 5653 5649 5648 5650 5650 5648 5648 5646 5645 5644 5645 5650 5649 5669 5680 5684 5689 5696 5703 5710 5713
5711 5710 5709 5708 5705 5703 5700 5697 5695 5693 5689 5686 5684 5681 5677 5673 5670 5666 5662 5658 5654 5650 5648 5646 5645 5641 5636 5637 5635 5636 5635 5635 5634 5635 5629 5639 5638 5646 5660 5668 5676 5684 5688 5695 5700
5708 5706 5704 5703 5702 5699 5696 5694 5693 5688 5686 5683 5679 5675 5672 5667 5665 5660 5656 5652 5651 5648 5646 5643 5639 5632 5630 5629 5628 5630 5626 5624 5622 5622 5617 5625 5626 5624 5645 5649 5660 5671 5684 5685 5688
5706 5703 5701 5699 5697 5695 5692 5691 5689 5685 5681 5677 5674 5671 5667 5662 5658 5652 5650 5650 5649 5642 5636 5631 5627 5626 5622 5622 5622 5621 5621 5620 5614 5614 5616 5617 5616 5614 5623 5632 5644 5656 5666 5672 5677
5705 5701 5698 5696 5694 5692 5689 5686 5682 5679 5676 5673 5669 5665 5663 5659 5654 5649 5648 5646 5640 5634 5629 5621 5619 5617 5615 5615 5615 5616 5614 5615 5609 5608 5605 5607 5609 5605 5616 5623 5630 5646 5656 5660 5666
5703 5699 5696 5693 5690 5688 5686 5683 5679 5675 5672 5667 5663 5660 5655 5652 5648 5643 5641 5640 5632 5628 5622 5618 5608 5608 5608 5609 5610 5606 5610 5609 5606 5600 5599 5600 5600 5604 5610 5615 5624 5635 5644 5645 5655
5702 5698 5694 5689 5686 5684 5682 5679 5674 5670 5666 5662 5657 5654 5649 5646 5642 5638 5637 5634 5627 5621 5615 5609 5605 5604 5603 5605 5604 5601 5603 5603 5598 5595 5594 5595 5598 5602 5595 5603 5611 5625 5635 5642 5639
5702 5697 5692 5688 5686 5681 5677 5674 5670 5665 5660 5656 5652 5648 5643 5640 5637 5633 5631 5627 5622 5617 5611 5606 5602 5599 5599 5599 5595 5594 5596 5596 5589 5591 5591 5592 5590 5585 5592 5595 5601 5611 5630 5626 5632
5703 5698 5691 5686 5682 5677 5673 5669 5664 5660 5654 5650 5646 5642 5638 5634 5631 5628 5626 5623 5618 5613 5608 5604 5601 5596 5596 5594 5592 5589 5593 5590 5587 5586 5584 5585 5583 5582 5585 5592 5595 5597 5615 5616 5622
5704 5698 5692 5686 5680 5675 5670 5665 5660 5653 5649 5643 5639 5636 5633 5629 5626 5624 5622 5618 5614 5610 5606 5602 5599 5595 5593 5590 5588 5586 5585 5582 5583 5580 5580 5581 5575 5573 5579 5586 5592 5592 5597 5607 5618
5703 5697 5691 5685 5678 5672 5667 5661 5655 5650 5643 5637 5635 5631 5628 5625 5622 5619 5617 5614 5611 5608 5604 5600 5597 5592 5588 5585 5582 5580 5579 5579 5575 5576 5581 5578 5572 5570 5568 5572 5586 5586 5590 5594 5610
5702 5695 5689 5683 5676 5670 5663 5657 5650 5645 5638 5633 5628 5625 5623 5620 5617 5616 5613 5610 5608 5605 5601 5598 5594 5588 5585 5581 5578 5577 5574 5573 5571 5573 5577 5577 5577 5574 5567 5570 5577 5580 5585 5594 5605
5700 5694 5687 5681 5674 5667 5660 5653 5646 5640 5635 5627 5624 5620 5617 5615 5612 5611 5609 5607 5605 5601 5597 5594 5590 5585 5582 5577 5575 5574 5569 5568 5565 5569 5566 5565 5567 5569 5572 5570 5571 5575 5581 5588 5597
Wind_Speed
20 20 20 20 18 17 17 16 18 20 22 22 23 24 24 24 26 29 33 34 39 42 44 45 48 47 52 48 54 47 53 50 47 44 41 38 38 39 38 39 35 34 29 34 40
21 20 20 20 20 18 18 18 17 18 19 20 21 22 22 23 24 25 25 30 33 35 38 41 43 47 50 51 51 55 60 56 47 40 39 43 42 39 41 37 33 43 46 45 41
21 21 21 20 19 19 19 19 19 19 20 20 21 22 23 23 25 22 24 27 29 31 34 37 39 42 45 49 49 51 52 48 54 46 42 40 42 47 41 40 31 36 45 48 46
19 20 20 22 21 20 20 21 21 22 22 22 23 24 24 25 27 20 25 27 29 30 33 36 37 39 42 46 47 52 52 50 47 58 58 50 46 47 46 42 40 28 32 33 42
17 17 17 17 17 17 17 18 19 20 22 23 25 26 27 27 27 28 28 29 30 31 33 35 35 38 40 41 47 50 46 46 51 56 58 56 57 55 51 43 40 50 36 30 42
17 17 18 18 19 20 20 18 19 19 19 19 21 22 24 27 27 28 30 31 33 34 35 35 38 40 41 42 43 44 47 50 49 50 53 58 62 64 57 43 45 49 51 40 41
16 15 16 16 17 19 20 22 22 22 22 21 21 21 22 22 24 25 26 27 28 30 32 35 38 40 43 45 43 45 49 50 50 49 52 55 57 64 61 59 50 51 51 53 45
16 16 16 15 16 18 19 19 20 21 22 22 23 24 26 24 25 26 27 28 29 31 33 35 37 38 40 43 45 48 51 52 44 50 48 52 59 49 53 62 64 56 55 54 58
14 14 14 14 13 12 13 17 19 21 23 24 24 26 28 25 27 28 28 30 31 32 34 36 38 41 43 45 46 47 50 51 49 50 53 53 58 51 47 53 63 68 64 61 60
15 14 14 15 15 14 13 12 13 14 16 18 20 24 23 25 25 28 30 32 33 35 36 38 41 43 45 47 47 50 53 53 53 48 55 54 56 56 52 54 55 59 67 67 67
15 14 15 16 16 16 15 15 13 13 14 17 18 22 24 24 26 28 29 31 34 36 38 40 42 44 47 50 53 57 58 59 57 58 57 46 43 58 56 57 57 59 62 64 69
16 15 15 15 16 17 18 18 17 13 13 14 18 19 21 23 25 28 29 32 34 37 39 40 43 45 49 52 55 58 63 62 63 63 65 65 66 63 60 60 58 61 62 61 60
17 16 13 14 15 17 17 19 17 17 15 12 15 16 18 20 24 26 30 33 34 36 38 41 43 44 46 49 53 55 58 62 65 67 69 70 72 69 63 64 60 51 63 62 60
16 16 15 14 15 15 16 17 17 18 16 13 12 13 18 20 26 27 30 33 35 37 39 41 42 44 46 49 47 53 52 55 59 63 68 61 73 71 66 67 70 67 64 64 63
16 15 17 15 16 16 17 18 17 17 20 16 20 19 21 23 25 29 33 36 37 39 42 38 36 39 43 39 31 39 38 39 46 48 55 62 61 73 69 69 72 69 66 63 66
19 17 16 17 17 18 17 18 18 18 15 21 19 22 25 28 30 33 35 38 38 38 31 33 33 34 31 27 26 29 42 43 44 43 51 66 50 75 72 73 70 56 57 60 66
19 17 16 16 19 17 16 17 19 17 18 21 22 24 26 29 28 32 34 30 22 27 24 26 30 32 32 26 18 19 25 29 34 34 43 40 40 58 67 66 66 47 29 28 31
21 19 19 18 18 17 16 16 18 18 18 22 24 23 25 25 29 31 25 21 19 28 33 33 33 22 30 23 29 21 29 32 38 33 25 29 35 41 48 52 55 44 42 43 44
24 22 21 20 20 18 19 21 21 22 23 22 22 23 23 23 27 26 14 19 26 32 34 33 33 29 28 26 24 27 25 22 31 32 37 28 34 39 32 43 45 45 29 41 48
29 24 22 21 20 20 19 20 22 23 24 25 25 24 25 23 24 20 15 18 30 31 32 25 41 30 18 22 21 23 22 25 25 30 31 25 30 12 17 30 32 42 42 39 47
29 27 24 23 22 21 20 20 24 27 27 26 24 24 24 24 22 19 18 21 27 31 29 30 27 14 15 13 17 20 18 15 19 25 24 20 15 8 19 36 37 47 44 27 44
30 29 28 27 25 23 23 24 25 27 29 27 23 22 23 22 24 16 16 20 23 26 24 20 19 19 15 10 19 22 22 22 32 24 23 27 26 28 11 43 35 32 29 48 56
31 29 28 26 26 27 27 27 29 28 31 28 24 22 21 22 21 10 13 19 21 22 22 20 17 18 11 14 19 16 16 27 26 22 26 25 27 27 23 43 45 32 40 19 41
32 32 30 29 27 26 26 27 28 32 30 28 24 22 20 20 17 8 12 18 18 18 20 21 17 19 18 17 16 23 21 13 22 18 18 21 34 36 25 33 50 38 36 23 44
33 31 30 29 29 28 28 29 30 30 31 30 24 24 20 17 15 13 13 15 17 14 17 21 20 22 24 21 18 19 22 10 18 21 25 23 25 30 33 16 55 31 17 18 47
34 32 31 27 29 30 31 31 32 30 32 27 25 25 21 18 15 12 13 15 16 18 15 22 25 26 23 24 21 20 16 30 21 23 23 25 27 23 27 23 19 15 23 26 53
34 34 33 31 31 32 32 33 34 33 26 28 25 24 22 19 16 13 13 15 15 15 15 20 26 25 23 17 18 14 14 16 6 25 30 32 30 25 21 20 11 8 15 38 49
Wind_Direction
284 281 278 278 273 271 267 262 260 253 245 240 241 243 243 240 240 241 245 242 241 242 241 243 245 243 240 235 235 239 234 231 232 235 236 231 233 234 238 243 229 207 217 216 236
287 286 285 281 280 276 271 265 258 255 251 248 244 243 244 243 241 243 243 242 239 238 240 240 243 247 249 245 244 241 238 236 238 239 241 235 235 229 233 234 238 236 221 221 224
286 283 281 278 276 276 274 270 267 261 257 252 250 247 247 247 246 247 243 241 242 239 239 242 244 245 244 246 246 246 245 245 235 239 242 243 238 239 240 236 228 240 236 240 241
291 285 280 278 273 267 264 265 263 262 260 258 256 253 251 250 249 249 244 242 242 242 243 243 244 247 247 245 246 249 249 248 242 241 244 240 237 236 235 235 223 215 247 239 244
300 293 287 283 279 274 268 266 261 259 259 260 259 256 254 253 252 250 246 247 246 244 245 246 247 246 247 246 244 247 248 248 246 242 242 244 240 240 237 235 234 233 217 236 250
304 301 298 292 285 282 280 273 270 267 261 254 254 254 255 254 252 251 251 248 248 248 248 247 247 249 249 249 250 248 247 247 245 245 244 244 247 243 230 231 232 234 238 220 238
326 310 301 293 288 283 278 279 278 275 275 273 267 263 258 257 254 253 252 251 251 250 250 251 251 250 251 252 253 251 249 250 249 251 251 249 248 244 237 235 234 230 234 237 232
340 332 320 310 301 291 285 278 275 276 275 273 271 268 265 264 261 260 257 255 254 255 255 256 255 255 255 254 254 254 254 254 253 255 254 253 255 250 243 241 235 237 235 233 238
354 353 349 340 331 318 300 286 277 271 268 268 268 266 265 262 264 261 261 262 261 262 261 259 256 256 256 256 256 257 257 255 251 253 254 253 256 250 247 243 243 240 242 241 237
345 355 357 353 350 341 327 308 295 288 279 272 269 266 268 264 261 264 266 267 267 267 268 267 266 265 263 261 259 257 257 255 254 250 256 255 257 247 246 245 243 244 243 243 241
334 340 346 349 351 346 341 335 322 303 282 280 276 275 276 273 274 272 271 271 271 270 270 270 269 268 266 265 262 258 256 254 252 251 246 241 250 247 247 246 245 245 244 244 242
324 324 327 334 339 341 338 334 331 328 299 284 285 282 281 281 280 279 277 275 274 273 271 268 266 264 262 260 260 260 260 259 256 254 247 251 247 249 243 245 248 245 245 244 246
317 317 322 325 330 333 333 331 326 325 320 312 301 295 291 286 283 286 284 282 280 279 277 275 271 270 268 266 263 259 258 258 257 250 250 253 252 251 246 247 244 239 244 242 243
311 315 314 320 325 328 331 329 325 323 317 313 312 302 296 291 289 289 289 291 292 291 288 287 284 278 273 268 266 262 260 259 257 252 251 248 251 248 248 249 251 251 253 249 241
290 305 314 322 326 327 329 328 325 323 319 321 317 313 310 303 301 303 307 305 302 302 300 303 300 289 290 279 258 264 254 254 257 257 255 246 250 249 246 247 248 250 250 251 251
311 294 303 314 323 327 326 326 324 320 318 315 317 319 319 319 316 313 314 314 317 318 321 315 298 307 289 286 268 274 260 260 265 262 261 252 255 247 242 242 243 243 254 251 252
335 320 303 309 320 325 325 326 325 319 322 321 324 320 318 312 317 314 315 319 330 304 298 294 297 282 275 271 262 265 289 289 265 263 266 271 265 259 242 240 237 229 233 238 243
340 336 328 321 317 326 324 323 322 321 319 319 319 316 314 313 318 321 320 321 299 291 300 302 307 276 262 270 265 275 261 267 277 270 268 257 262 251 242 242 231 203 218 226 225
354 337 325 322 319 321 325 324 327 328 320 315 313 314 311 306 307 305 307 297 303 309 311 297 300 291 257 255 284 274 274 280 276 266 266 275 247 251 244 248 221 205 216 231 232
4 357 352 332 322 318 315 323 322 327 322 315 313 312 311 311 315 300 306 311 311 305 298 284 291 291 268 266 267 271 274 276 268 258 261 279 257 261 217 236 205 198 206 211 219
11 11 2 358 346 332 324 324 327 325 326 315 312 311 311 313 319 298 304 312 319 320 308 295 287 306 277 266 292 260 258 266 265 266 265 285 237 230 250 198 201 197 213 222 222
20 16 10 5 359 350 339 330 325 322 322 314 308 307 308 310 316 292 296 313 319 327 332 313 304 301 288 259 247 273 247 252 286 246 268 269 191 246 230 192 196 177 193 215 233
15 12 8 3 357 350 342 335 328 326 321 317 308 307 307 310 315 267 300 320 323 327 326 329 321 307 295 285 276 255 266 257 264 263 285 256 203 217 197 190 198 194 202 209 227
8 8 7 0 352 346 341 335 330 327 324 315 307 306 306 309 304 263 304 328 325 320 322 322 320 300 293 298 279 260 317 256 254 278 287 268 258 221 191 193 195 190 176 207 220
3 4 5 359 354 346 343 339 335 331 326 318 310 305 304 306 293 273 303 324 315 324 323 330 328 306 312 315 297 249 279 255 268 279 283 281 274 270 277 260 187 181 178 201 205
1 1 3 359 355 350 346 341 338 339 330 316 310 305 303 308 301 268 293 308 316 321 327 329 329 316 318 296 299 300 294 270 252 267 274 284 285 294 295 252 173 159 173 205 206
356 358 357 359 355 353 349 345 341 340 333 322 310 305 299 304 306 271 285 296 296 326 331 328 336 337 339 311 299 307 294 266 296 254 254 255 263 274 256 263 255 243 199 205 205